Temp
67 71 74 76 76 76 76 76 76 76 76 76 76 76 76 76 76 75 75 76 76 76 76 76 76 75 74 74 73 73 73 72 72 73 74 74 74 74 74 73 72 70 73
70 72 73 75 76 75 75 75 75 75 76 76 76 76 76 76 75 75 75 75 75 76 76 75 75 75 74 73 72 72 72 72 72 72 72 72 74 74 73 72 72 71 73
71 72 73 74 75 75 75 75 75 75 76 76 76 76 76 76 75 75 76 76 75 75 75 75 74 73 72 72 72 72 72 72 71 71 71 65 68 74 74 73 73 73 73
72 72 73 72 74 74 74 74 74 75 75 75 76 76 75 75 75 75 75 74 75 75 74 74 73 73 72 72 72 72 72 71 71 70 66 68 71 75 75 74 73 73 72
71 72 71 72 74 74 74 74 74 75 75 75 75 75 74 74 74 74 75 74 74 74 74 73 73 72 72 71 71 71 71 71 70 68 65 65 65 73 74 74 73 72 71
70 71 70 72 73 74 74 74 74 74 74 74 74 74 74 73 73 73 73 73 73 73 73 73 72 71 71 71 71 71 71 70 69 63 64 68 66 74 74 74 73 73 72
68 69 71 71 72 73 73 73 73 73 74 73 73 73 73 73 73 72 72 72 72 72 72 72 71 71 71 70 70 70 70 69 65 64 65 65 66 73 74 74 74 73 73
68 69 71 67 69 71 72 72 72 72 72 73 72 72 72 72 72 72 72 72 72 72 71 71 71 70 70 70 70 70 68 67 66 63 65 65 69 73 74 74 74 74 74
69 68 68 68 67 67 68 69 70 71 71 71 71 71 70 70 70 70 70 71 71 71 71 71 70 70 70 70 70 69 67 66 62 63 67 65 70 74 75 74 74 74 74
68 68 66 66 67 65 65 65 66 68 68 68 68 67 66 67 68 68 67 69 70 70 70 70 70 70 70 70 69 67 65 64 63 64 64 65 71 74 75 74 74 74 74
69 69 68 67 66 66 65 64 64 65 65 65 65 65 64 65 66 66 65 67 69 69 69 70 70 69 68 66 66 65 64 63 63 64 65 67 72 74 75 74 74 74 73
68 71 71 68 68 67 71 63 64 66 65 65 65 65 66 65 66 67 62 64 66 66 68 69 69 68 65 64 64 65 64 64 64 66 67 67 72 74 75 75 74 74 73
65 67 67 68 69 66 66 63 63 64 65 67 67 66 67 67 65 64 63 63 62 60 63 66 66 65 65 67 68 66 67 69 68 66 67 66 71 74 75 75 75 74 74
65 66 67 71 68 67 66 64 65 65 65 64 66 68 65 64 63 64 63 64 63 64 65 68 67 67 67 68 67 66 66 66 66 68 68 64 67 71 74 75 75 75 74
65 65 66 67 68 70 67 66 68 67 66 66 66 67 66 64 63 65 65 68 69 70 69 65 65 65 65 65 65 65 65 65 65 65 67 63 65 70 73 75 76 75 74
66 66 66 67 67 69 71 70 69 66 67 66 65 66 68 66 67 70 69 68 68 67 66 64 64 63 64 62 63 64 64 63 64 65 65 68 65 66 70 73 74 74 74
66 67 67 67 68 68 68 70 66 67 67 66 66 68 69 71 69 68 67 66 66 65 64 68 67 63 61 62 60 61 62 63 63 64 65 64 63 63 65 70 71 71 71
66 66 67 71 68 67 67 67 68 67 66 67 67 68 67 68 67 67 66 64 64 62 61 60 59 58 57 57 57 58 58 60 61 62 62 62 62 63 63 65 67 68 69
68 67 67 68 67 67 67 67 66 65 64 64 64 64 65 65 65 64 62 61 60 59 58 57 56 55 54 55 58 58 57 56 57 61 60 61 61 62 61 62 61 61 65
71 72 70 68 67 67 67 66 63 61 61 62 61 61 62 63 62 61 59 58 58 56 56 55 54 55 54 54 59 58 56 55 56 55 57 60 61 61 61 60 59 59 61
71 71 71 70 68 67 67 66 60 55 57 57 58 58 58 59 60 58 57 57 57 54 52 54 53 53 52 55 51 53 53 56 55 58 55 56 57 58 58 59 58 58 59
60 61 60 61 61 63 63 60 57 56 56 56 55 54 55 54 55 57 55 55 54 53 51 51 50 49 50 52 47 47 47 50 53 56 56 55 53 54 55 57 56 56 56
53 54 55 56 57 58 58 57 56 56 54 53 52 51 50 52 52 52 52 52 51 50 49 48 48 48 47 50 48 45 41 40 45 51 51 52 50 51 52 52 54 54 54
49 52 52 53 54 54 55 54 53 50 48 50 50 50 49 49 49 50 50 50 49 49 47 48 48 46 47 43 45 48 44 41 38 39 48 48 48 49 48 49 49 51 52
48 48 49 50 49 49 50 50 48 47 48 49 48 46 46 46 47 48 48 48 47 47 46 46 44 42 42 41 41 41 43 41 41 36 35 39 43 45 46 46 47 48 49
47 47 47 47 47 48 48 48 47 46 46 44 43 42 42 43 44 44 46 45 45 44 44 43 41 41 41 41 40 39 38 37 36 35 33 35 35 40 43 45 45 44 45
MSLP
1020.30 1020.13 1020.27 1020.40 1020.43 1020.57 1020.60 1020.45 1020.33 1020.50 1020.79 1021.01 1021.17 1021.37 1021.58 1021.79 1021.90 1022.00 1022.01 1022.00 1022.05 1022.09 1022.09 1022.08 1022.15 1022.19 1022.27 1022.34 1022.33 1022.24 1022.17 1022.12 1022.09 1022.07 1021.88 1021.73 1021.64 1021.61 1021.57 1021.57 1021.52 1021.35 1021.19
1019.84 1020.13 1020.34 1020.42 1020.60 1020.77 1020.79 1020.68 1020.47 1020.62 1020.84 1021.05 1021.36 1021.60 1021.78 1022.00 1022.12 1022.27 1022.28 1022.32 1022.34 1022.32 1022.35 1022.41 1022.41 1022.42 1022.47 1022.52 1022.51 1022.41 1022.30 1022.26 1022.25 1022.18 1022.03 1021.98 1021.78 1021.88 1021.91 1021.89 1021.72 1021.60 1021.46
1019.83 1020.22 1020.44 1020.59 1020.77 1020.95 1021.01 1020.97 1020.83 1020.86 1020.97 1021.29 1021.50 1021.70 1021.95 1022.21 1022.36 1022.47 1022.43 1022.48 1022.59 1022.60 1022.60 1022.63 1022.72 1022.76 1022.75 1022.71 1022.61 1022.54 1022.44 1022.30 1022.12 1022.07 1022.03 1022.15 1021.91 1021.79 1021.78 1021.82 1021.82 1021.81 1021.71
1019.92 1020.35 1020.60 1020.84 1021.03 1021.20 1021.28 1021.32 1021.27 1021.29 1021.40 1021.59 1021.72 1021.92 1022.09 1022.30 1022.49 1022.55 1022.61 1022.74 1022.78 1022.80 1022.85 1022.88 1022.88 1022.88 1022.86 1022.81 1022.76 1022.65 1022.46 1022.28 1022.21 1022.23 1022.20 1022.12 1021.99 1021.86 1021.90 1021.95 1021.89 1021.86 1021.79
1020.02 1020.47 1020.84 1021.04 1021.18 1021.35 1021.49 1021.59 1021.64 1021.67 1021.76 1021.94 1022.08 1022.22 1022.30 1022.42 1022.55 1022.64 1022.63 1022.83 1023.01 1023.08 1023.09 1023.10 1023.11 1023.11 1023.04 1022.97 1022.85 1022.71 1022.54 1022.42 1022.33 1022.33 1022.25 1022.13 1022.15 1022.01 1021.95 1021.83 1021.79 1021.69 1021.64
1020.26 1020.67 1021.05 1021.21 1021.38 1021.57 1021.73 1021.84 1021.95 1022.02 1022.11 1022.28 1022.45 1022.57 1022.70 1022.81 1022.88 1022.96 1023.03 1023.13 1023.19 1023.27 1023.33 1023.35 1023.35 1023.35 1023.24 1023.15 1023.01 1022.86 1022.70 1022.55 1022.51 1022.52 1022.35 1022.19 1022.23 1022.01 1021.91 1021.78 1021.62 1021.55 1021.43
1020.57 1020.92 1021.24 1021.44 1021.67 1021.82 1021.93 1022.04 1022.18 1022.31 1022.43 1022.56 1022.73 1022.84 1023.01 1023.10 1023.16 1023.20 1023.21 1023.26 1023.29 1023.32 1023.39 1023.41 1023.40 1023.41 1023.36 1023.32 1023.25 1023.14 1022.98 1022.82 1022.74 1022.64 1022.33 1022.26 1022.17 1021.92 1021.78 1021.62 1021.49 1021.38 1021.23
1020.65 1021.04 1021.36 1021.71 1021.90 1022.09 1022.22 1022.34 1022.51 1022.59 1022.67 1022.80 1023.00 1023.15 1023.27 1023.32 1023.34 1023.37 1023.41 1023.49 1023.56 1023.56 1023.54 1023.53 1023.54 1023.50 1023.40 1023.24 1023.05 1022.99 1022.91 1022.86 1022.76 1022.73 1022.39 1022.17 1022.02 1021.86 1021.67 1021.59 1021.45 1021.23 1021.08
1020.61 1021.14 1021.55 1021.86 1022.16 1022.32 1022.49 1022.59 1022.71 1022.86 1022.98 1023.11 1023.24 1023.35 1023.45 1023.53 1023.59 1023.71 1023.73 1023.73 1023.78 1023.80 1023.73 1023.66 1023.58 1023.50 1023.40 1023.31 1023.23 1023.12 1022.97 1022.87 1022.83 1022.63 1022.42 1022.30 1021.96 1021.70 1021.55 1021.44 1021.31 1021.16 1020.95
1020.69 1021.05 1021.53 1021.89 1022.18 1022.47 1022.68 1022.80 1022.95 1023.12 1023.23 1023.35 1023.41 1023.45 1023.57 1023.66 1023.71 1023.81 1023.84 1023.86 1023.84 1023.78 1023.73 1023.67 1023.54 1023.46 1023.37 1023.28 1023.20 1023.04 1022.92 1022.87 1022.76 1022.46 1022.23 1022.09 1021.75 1021.52 1021.39 1021.34 1021.21 1021.02 1020.80
1020.60 1020.86 1021.29 1021.63 1022.03 1022.34 1022.69 1022.98 1023.07 1023.21 1023.33 1023.43 1023.43 1023.53 1023.66 1023.77 1023.89 1023.84 1023.80 1023.78 1023.69 1023.66 1023.64 1023.61 1023.47 1023.32 1023.24 1023.15 1022.98 1022.72 1022.75 1022.78 1022.62 1022.27 1022.00 1021.72 1021.53 1021.34 1021.16 1021.09 1021.05 1020.90 1020.73
1020.41 1020.59 1020.78 1021.17 1021.70 1022.11 1022.29 1022.84 1023.03 1023.14 1023.30 1023.31 1023.37 1023.43 1023.53 1023.61 1023.67 1023.66 1023.68 1023.68 1023.65 1023.58 1023.62 1023.51 1023.33 1023.18 1023.16 1023.03 1022.74 1022.49 1022.52 1022.42 1022.26 1022.03 1021.76 1021.56 1021.41 1021.20 1021.03 1020.87 1020.77 1020.64 1020.40
1020.30 1020.59 1020.85 1021.01 1021.28 1021.91 1022.17 1022.57 1022.80 1022.96 1023.11 1023.16 1023.18 1023.26 1023.29 1023.40 1023.52 1023.54 1023.57 1023.57 1023.55 1023.48 1023.47 1023.18 1023.04 1022.95 1022.81 1022.65 1022.44 1022.38 1022.20 1021.93 1021.74 1021.65 1021.50 1021.43 1021.21 1020.95 1020.77 1020.59 1020.45 1020.33 1020.16
1020.37 1020.53 1020.88 1020.77 1021.23 1021.72 1022.01 1022.46 1022.55 1022.72 1022.84 1023.01 1022.99 1023.06 1023.26 1023.51 1023.54 1023.44 1023.46 1023.35 1023.29 1023.24 1023.21 1022.97 1022.96 1022.86 1022.71 1022.56 1022.41 1022.29 1022.13 1021.96 1021.79 1021.52 1021.22 1021.10 1020.96 1020.78 1020.46 1020.26 1020.04 1019.86 1019.74
1020.29 1020.46 1020.70 1020.95 1021.15 1021.46 1021.85 1022.11 1022.36 1022.52 1022.60 1022.71 1022.97 1022.98 1023.14 1023.41 1023.47 1023.30 1023.31 1023.19 1023.09 1022.97 1022.93 1023.15 1023.06 1022.92 1022.70 1022.51 1022.39 1022.23 1022.01 1021.74 1021.53 1021.30 1020.93 1020.65 1020.51 1020.38 1020.26 1019.98 1019.75 1019.59 1019.44
1020.14 1020.41 1020.73 1020.98 1021.10 1021.34 1021.59 1021.81 1022.12 1022.45 1022.53 1022.72 1022.85 1022.93 1023.03 1023.14 1023.12 1023.07 1023.10 1023.13 1023.08 1023.09 1023.20 1023.16 1023.14 1023.09 1022.74 1022.52 1022.35 1022.16 1021.88 1021.64 1021.41 1021.09 1020.83 1020.43 1020.18 1020.12 1019.91 1019.73 1019.59 1019.54 1019.42
1020.01 1020.25 1020.49 1020.84 1021.15 1021.30 1021.52 1021.77 1022.10 1022.20 1022.47 1022.71 1022.73 1022.84 1022.99 1023.14 1023.19 1023.22 1023.33 1023.52 1023.43 1023.28 1023.13 1022.74 1022.85 1023.04 1023.01 1022.75 1022.54 1022.22 1021.97 1021.64 1021.28 1021.03 1020.76 1020.46 1020.25 1020.01 1019.90 1019.68 1019.57 1019.51 1019.46
1019.83 1020.39 1020.55 1020.54 1020.89 1021.27 1021.50 1021.73 1021.92 1022.33 1022.51 1022.93 1023.16 1023.22 1023.48 1023.59 1023.67 1023.56 1023.71 1023.87 1023.77 1023.71 1023.64 1023.55 1023.40 1023.39 1023.24 1023.02 1022.69 1022.37 1022.05 1021.78 1021.53 1021.25 1020.91 1020.73 1020.53 1020.40 1020.15 1019.91 1019.80 1019.73 1019.71
1019.58 1020.09 1020.53 1020.67 1020.89 1021.22 1021.40 1021.83 1022.02 1022.82 1023.36 1023.76 1023.86 1023.93 1024.07 1024.04 1024.08 1024.13 1024.42 1024.36 1024.22 1024.28 1024.24 1024.10 1023.98 1023.72 1023.65 1023.44 1022.88 1022.36 1021.79 1021.76 1021.88 1021.68 1021.48 1021.06 1020.85 1020.66 1020.60 1020.44 1020.19 1020.02 1019.72
1019.03 1019.67 1020.12 1020.55 1020.84 1020.90 1021.35 1021.91 1022.99 1023.51 1024.03 1024.33 1024.69 1024.73 1024.71 1024.72 1024.64 1024.79 1024.90 1024.98 1024.94 1024.96 1024.86 1024.71 1024.54 1024.12 1024.04 1023.83 1023.11 1022.75 1022.10 1021.71 1021.90 1022.01 1022.05 1021.84 1021.55 1021.52 1021.34 1021.28 1021.05 1020.72 1020.43
1019.02 1019.56 1020.00 1020.32 1020.62 1021.18 1021.55 1022.14 1023.29 1024.34 1024.98 1025.23 1025.48 1025.67 1025.62 1025.55 1025.71 1025.68 1025.64 1025.58 1025.61 1025.72 1026.02 1025.42 1025.16 1024.80 1024.51 1024.27 1023.59 1022.79 1022.34 1021.55 1021.94 1022.14 1022.29 1022.14 1022.15 1022.17 1022.00 1021.73 1021.63 1021.40 1020.83
1020.45 1020.89 1021.19 1021.33 1021.44 1021.63 1021.94 1022.84 1023.66 1024.73 1025.60 1025.97 1026.37 1026.54 1026.55 1026.56 1026.65 1026.45 1026.47 1026.53 1026.61 1025.93 1026.62 1026.43 1025.97 1025.42 1025.22 1025.16 1025.12 1024.52 1023.89 1022.86 1022.09 1022.54 1022.26 1022.74 1022.97 1022.99 1022.84 1022.61 1022.23 1021.87 1021.49
1021.95 1022.22 1022.33 1022.54 1022.42 1022.67 1022.78 1023.47 1024.23 1025.05 1025.82 1026.46 1027.14 1027.65 1027.62 1027.46 1027.55 1027.62 1027.56 1027.45 1027.39 1027.84 1027.09 1027.31 1027.02 1026.53 1026.27 1025.74 1025.97 1025.98 1025.55 1025.32 1023.99 1022.86 1022.85 1023.28 1023.78 1023.77 1023.45 1023.05 1022.60 1022.29 1021.86
1023.42 1023.45 1023.47 1023.50 1023.48 1023.77 1023.70 1024.33 1024.87 1025.56 1026.64 1027.46 1028.06 1028.36 1028.76 1028.05 1028.36 1028.07 1028.35 1028.40 1028.39 1028.32 1028.47 1027.81 1027.71 1027.74 1027.40 1027.18 1026.68 1026.86 1026.84 1027.13 1026.68 1025.07 1024.00 1024.11 1024.50 1024.04 1023.68 1023.60 1023.27 1022.92 1022.70
1024.47 1024.51 1024.57 1024.36 1024.88 1024.92 1025.04 1025.59 1025.94 1026.76 1027.60 1028.46 1028.08 1028.25 1029.20 1028.77 1028.72 1028.61 1028.86 1028.87 1028.84 1029.09 1029.26 1028.87 1028.81 1028.70 1028.12 1028.18 1028.04 1028.01 1027.62 1027.16 1027.41 1027.59 1026.22 1025.59 1025.34 1024.81 1024.42 1023.56 1023.31 1023.29 1023.10
1025.16 1025.41 1025.30 1025.51 1025.87 1026.32 1026.26 1026.58 1026.87 1027.54 1028.22 1028.58 1029.76 1029.18 1029.79 1029.66 1029.96 1029.20 1029.43 1029.56 1029.71 1029.69 1029.59 1029.75 1029.56 1029.05 1028.96 1028.82 1028.85 1028.95 1028.99 1028.81 1028.72 1028.46 1027.74 1026.93 1026.38 1025.60 1024.54 1023.51 1023.83 1024.07 1023.88
Wind_Speed
4 6 11 11 12 11 10 8 6 11 12 12 16 17 17 16 15 14 14 13 13 13 13 14 13 12 12 13 13 12 10 9 9 11 12 13 14 13 14 13 12 7 12
10 8 11 10 14 12 11 12 13 16 14 14 16 17 18 15 15 14 13 12 12 12 12 13 13 13 13 11 11 11 10 9 7 7 6 8 12 13 13 13 13 9 12
11 8 7 12 14 13 12 14 14 12 13 17 19 18 17 15 14 13 12 11 12 11 11 11 11 11 11 10 10 9 8 9 11 12 8 3 5 10 10 9 10 12 12
12 7 10 13 14 14 14 14 15 17 18 18 18 17 16 15 13 12 12 11 10 10 10 10 9 9 9 9 8 7 8 9 10 10 4 4 4 10 9 9 10 9 9
10 10 10 13 14 14 14 14 14 14 15 16 15 14 13 13 12 12 10 11 10 9 9 8 9 9 9 9 8 8 8 9 10 8 4 5 3 7 8 8 5 5 4
12 12 10 14 14 14 13 14 14 13 14 14 13 12 12 12 11 11 11 12 10 8 8 8 8 8 8 9 9 9 9 10 9 6 1 4 3 5 6 8 8 6 4
11 10 10 12 13 12 12 13 13 13 12 13 12 12 12 12 11 10 10 9 8 8 8 7 7 7 7 7 8 9 10 11 7 6 4 3 1 3 5 7 8 8 8
13 10 9 10 11 11 11 12 11 12 12 12 11 11 10 9 9 8 8 7 7 6 6 6 6 6 6 6 6 6 7 9 6 5 6 3 3 0 5 7 9 9 10
13 10 7 7 9 10 10 10 10 10 10 10 10 9 7 7 6 6 6 5 5 5 5 4 4 5 6 7 9 9 9 9 6 4 6 3 4 2 5 7 9 10 10
11 11 9 8 7 6 6 8 9 9 9 9 8 7 6 5 5 5 4 2 2 2 3 3 4 5 7 8 9 11 9 8 6 6 4 4 8 4 4 7 9 10 11
9 10 10 9 8 7 7 6 7 8 8 7 6 6 3 1 1 3 3 3 2 3 4 5 6 7 7 8 9 12 7 3 5 4 3 7 7 6 7 8 11 13 13
7 10 11 7 10 8 7 6 5 5 4 4 4 4 3 4 5 5 4 5 5 6 6 8 8 9 6 4 4 4 3 5 4 4 3 8 9 10 11 11 12 14 15
6 6 8 7 8 8 6 4 3 3 3 3 5 3 2 3 1 1 2 2 3 4 3 4 5 4 5 4 4 4 4 4 3 3 4 7 11 13 14 14 15 15 16
7 8 7 7 7 7 4 4 5 4 3 3 3 4 2 0 2 2 1 2 3 2 4 4 2 4 4 5 5 5 5 4 3 3 4 9 10 14 15 17 17 17 17
7 7 7 7 6 6 6 4 4 4 3 4 4 4 2 1 2 1 2 2 2 2 2 4 4 4 5 5 5 5 6 6 5 3 3 9 8 12 15 17 18 17 18
8 8 7 6 6 6 4 5 4 4 3 4 3 3 3 2 1 2 3 3 3 3 3 3 3 3 3 3 5 6 6 6 6 6 4 6 7 9 9 14 15 15 16
7 6 6 5 5 7 6 4 3 3 4 3 3 2 2 5 5 4 3 4 3 3 4 3 3 5 5 5 6 5 5 6 5 6 5 4 5 7 7 8 10 12 13
9 8 6 5 6 7 6 4 3 3 3 5 6 6 9 9 7 6 5 5 4 5 4 4 4 3 4 4 4 4 4 5 6 7 6 5 4 4 5 8 8 9 12
11 11 9 7 7 7 6 4 3 9 7 6 7 7 9 9 8 7 5 5 5 4 5 4 4 3 3 5 5 4 5 4 5 5 7 7 6 7 5 9 11 10 11
9 11 11 7 7 7 5 4 7 8 7 7 7 8 10 9 10 7 6 7 6 5 5 5 4 4 3 5 5 5 6 3 3 4 6 7 9 12 10 12 10 9 14
5 8 8 9 7 6 4 5 4 5 6 7 8 11 12 11 10 9 7 8 6 7 6 7 4 5 4 9 4 5 3 3 5 8 4 5 12 10 13 12 9 9 10
12 12 12 11 10 7 5 5 5 5 8 8 8 11 12 12 11 10 9 8 9 6 9 9 7 3 4 8 4 2 5 5 6 8 8 7 9 9 11 12 12 11 10
13 11 12 11 11 10 10 9 10 8 6 8 8 8 10 12 12 12 11 9 9 8 7 6 8 10 5 4 7 4 4 3 9 2 4 8 11 10 10 10 11 11 11
10 10 12 12 12 12 12 10 11 10 10 8 7 7 8 12 11 12 11 10 9 7 9 9 8 7 5 6 3 6 4 2 4 7 4 4 13 9 9 9 8 9 11
10 10 11 14 15 14 13 12 11 12 9 6 7 9 8 9 10 11 10 10 10 8 8 9 8 7 7 5 5 4 3 3 7 3 5 10 8 8 7 7 7 7 11
10 10 12 13 15 12 12 13 13 13 8 8 6 7 5 7 7 11 11 9 6 6 7 5 5 9 8 8 6 6 6 4 6 4 5 7 6 6 7 6 6 8 10
Wind_Direction
144 133 134 138 121 101 77 50 109 147 133 124 127 113 103 95 91 86 82 78 76 77 73 70 67 67 70 62 59 58 56 53 42 36 48 55 49 47 45 42 37 22 39
135 132 142 139 113 100 78 66 82 127 127 122 117 107 98 94 91 87 86 83 79 77 74 68 66 66 67 63 55 48 38 29 29 25 12 35 63 47 40 35 32 24 26
129 129 139 123 111 99 83 70 77 101 113 111 109 103 97 91 87 88 86 87 82 79 75 70 66 63 62 56 50 41 23 7 360 2 18 114 76 56 46 36 31 25 21
123 123 118 115 109 99 86 76 76 85 95 101 99 98 97 98 97 95 97 87 89 83 77 72 67 62 58 52 43 30 14 359 352 355 356 85 42 37 32 25 15 17 15
122 119 119 117 111 106 98 89 86 84 90 94 93 96 102 106 98 84 94 111 90 74 69 63 58 55 49 41 33 22 4 353 348 350 312 66 67 35 19 10 18 5 348
120 118 121 116 112 106 100 98 97 97 99 97 98 99 101 101 94 86 79 79 82 76 66 58 52 43 37 28 22 12 360 353 355 358 273 87 69 36 14 358 354 352 324
116 118 118 113 111 109 107 105 102 101 103 104 104 105 101 95 90 88 86 86 85 80 73 64 52 36 23 12 2 355 347 344 352 341 292 126 176 45 353 337 333 331 328
125 123 122 115 112 109 108 109 108 110 109 110 107 105 101 99 98 95 92 85 78 72 62 48 32 15 0 345 329 325 326 328 331 318 307 165 210 41 340 328 319 321 322
128 124 125 121 116 113 112 111 111 110 108 105 106 108 110 107 102 93 76 72 61 46 35 21 360 338 325 322 320 312 309 310 318 305 305 245 218 289 336 326 318 317 316
140 142 142 139 135 126 125 120 118 114 110 110 118 128 133 141 139 130 116 83 55 18 342 322 315 308 307 309 306 298 293 305 300 296 285 238 224 267 315 318 316 315 316
155 153 151 158 152 139 132 129 122 128 132 137 147 156 161 199 200 175 189 192 207 250 266 282 284 282 296 295 285 276 285 285 291 285 274 243 243 266 292 306 307 310 311
160 159 158 161 155 149 143 150 154 158 167 173 182 179 201 202 182 174 214 223 245 261 279 276 273 281 287 280 280 307 257 265 272 289 293 249 257 277 296 307 303 301 303
154 134 160 162 134 145 143 161 172 167 187 204 168 173 138 97 225 222 246 241 243 252 262 271 259 259 252 247 278 289 269 267 277 282 291 276 265 283 291 300 303 305 303
152 152 151 140 144 142 155 164 181 171 157 169 163 136 134 106 267 285 237 216 216 214 253 262 319 307 308 311 306 304 306 302 293 282 271 283 296 291 288 295 302 303 307
149 149 153 146 146 144 156 174 148 162 161 151 161 166 153 159 224 275 289 317 346 328 338 5 350 342 329 330 326 320 306 298 291 282 284 262 275 290 294 307 313 308 314
149 149 141 144 165 174 166 160 137 156 159 146 145 182 191 169 234 22 21 9 9 9 32 8 353 334 331 346 332 323 305 304 299 308 302 295 290 296 307 317 328 337 334
153 153 162 180 182 173 165 128 139 153 141 145 175 130 84 49 42 38 36 35 17 14 358 15 357 359 352 340 326 319 326 321 318 313 305 304 317 323 349 3 12 6 0
145 161 176 200 174 158 149 148 143 159 101 61 72 62 49 47 36 45 45 32 17 33 30 33 28 4 344 342 323 327 322 317 319 321 336 346 355 1 358 4 29 8 358
164 169 185 187 171 155 158 161 126 70 67 61 57 56 47 44 43 59 49 30 30 38 28 19 6 19 7 343 321 318 311 318 332 360 4 358 5 13 3 358 2 357 349
172 168 164 157 156 167 153 126 81 75 68 62 55 51 46 41 38 42 41 32 29 33 26 9 7 348 16 333 318 323 306 328 45 36 2 5 7 16 8 9 5 353 350
130 143 171 160 178 163 166 132 85 77 70 65 57 48 43 41 36 35 37 36 35 43 14 18 344 350 358 356 347 322 304 338 75 17 15 11 21 13 15 3 356 354 346
68 62 58 53 48 48 66 88 101 98 80 74 63 52 44 43 36 43 36 29 24 42 24 18 19 351 345 25 343 317 346 336 3 340 9 24 23 12 357 356 345 343 342
57 54 61 54 55 51 84 99 102 93 84 72 59 50 43 46 41 33 33 39 32 8 39 20 11 25 4 9 43 20 1 324 331 336 26 22 14 355 349 338 348 338 338
57 61 65 64 62 59 65 82 87 96 92 81 74 65 41 49 42 46 35 32 32 26 17 28 27 22 6 29 351 14 31 351 344 327 6 10 357 338 336 336 329 345 21
62 66 70 71 66 62 75 79 87 85 79 66 82 77 62 44 47 45 41 41 37 27 16 32 31 21 34 33 29 356 7 331 51 295 303 333 324 335 338 316 344 17 18
75 71 73 79 75 69 78 85 91 99 95 105 45 67 48 45 22 36 38 41 39 32 33 30 27 39 37 45 34 26 25 11 352 359 308 321 295 326 317 334 17 20 11